AFR609 SBFZ-SOCA

Flight info

Callsign AFR609
Flight time N/A
Altitude 38000
Route ASOVU DCT POSPI UM791 SIKUD DCT ALDIX ALDIX1S
Aircraft A343/H-SDE2E3FGHIJ4J5M1RWXY/LB1D1

Departure

Time 2026-04-29 14:54
Airport Pinto Martins International Airport (SBFZ)

Arrival

Time N/A
Airport Cayenne – Félix Eboué Airport (SOCA)
Time Latitude Longitude Altitude Speed Heading
2026-04-29 14:31 -3.77761 -38.54112 95 ft 0 kts 194°
2026-04-29 14:45 -3.77758 -38.54111 95 ft 3 kts 194°
2026-04-29 14:46 -3.77733 -38.54103 98 ft 4 kts 205°
2026-04-29 14:46 -3.77709 -38.54089 97 ft 4 kts 219°
2026-04-29 14:46 -3.77692 -38.54070 95 ft 4 kts 249°
2026-04-29 14:46 -3.77689 -38.54052 96 ft 1 kts 285°
2026-04-29 14:47 -3.77690 -38.54049 96 ft 0 kts 285°
2026-04-29 14:49 -3.77689 -38.54052 95 ft 2 kts 285°
2026-04-29 14:50 -3.77684 -38.54072 99 ft 4 kts 285°
2026-04-29 14:50 -3.77673 -38.54111 98 ft 7 kts 285°
2026-04-29 14:50 -3.77658 -38.54169 97 ft 10 kts 285°
2026-04-29 14:50 -3.77640 -38.54235 98 ft 10 kts 285°
2026-04-29 14:51 -3.77621 -38.54305 98 ft 11 kts 285°
2026-04-29 14:51 -3.77588 -38.54368 100 ft 10 kts 326°
2026-04-29 14:51 -3.77521 -38.54381 95 ft 10 kts 348°
2026-04-29 14:51 -3.77481 -38.54427 99 ft 9 kts 289°
2026-04-29 14:52 -3.77460 -38.54487 100 ft 9 kts 293°
2026-04-29 14:52 -3.77414 -38.54508 99 ft 7 kts 13°
2026-04-29 14:52 -3.77370 -38.54493 98 ft 7 kts 19°
2026-04-29 14:52 -3.77328 -38.54481 99 ft 6 kts 17°
2026-04-29 14:53 -3.77311 -38.54461 99 ft 3 kts 65°
2026-04-29 14:53 -3.77313 -38.54439 99 ft 4 kts 108°
2026-04-29 14:53 -3.77327 -38.54407 98 ft 9 kts 107°
2026-04-29 14:53 -3.77364 -38.54267 98 ft 42 kts 105°
2026-04-29 14:54 -3.77487 -38.53805 98 ft 94 kts 104°
2026-04-29 14:54 -3.77693 -38.53028 99 ft 135 kts 105°
2026-04-29 14:54 -3.77945 -38.52050 372 ft 148 kts 105°
2026-04-29 14:54 -3.78187 -38.51046 733 ft 152 kts 107°
2026-04-29 14:55 -3.78463 -38.49971 1113 ft 166 kts 105°
2026-04-29 14:55 -3.78762 -38.48811 1584 ft 181 kts 106°
2026-04-29 14:55 -3.79089 -38.47542 2111 ft 193 kts 107°
2026-04-29 14:55 -3.79400 -38.46166 2559 ft 216 kts 100°
2026-04-29 14:56 -3.79263 -38.44578 2925 ft 243 kts 72°
2026-04-29 14:56 -3.78197 -38.43208 3530 ft 262 kts 37°
2026-04-29 14:56 -3.76436 -38.42653 4247 ft 277 kts
2026-04-29 14:56 -3.74561 -38.43167 4980 ft 287 kts 328°
2026-04-29 14:57 -3.73078 -38.44518 5793 ft 291 kts 309°
2026-04-29 14:57 -3.71875 -38.46164 6566 ft 295 kts 304°
2026-04-29 14:57 -3.70723 -38.47886 7339 ft 300 kts 305°
2026-04-29 14:57 -3.69512 -38.49584 8149 ft 301 kts 308°
2026-04-29 14:58 -3.68212 -38.51231 8954 ft 302 kts 311°
2026-04-29 14:58 -3.66831 -38.52828 9714 ft 305 kts 314°
2026-04-29 14:58 -3.65464 -38.54473 10274 ft 314 kts 307°
2026-04-29 14:58 -3.64233 -38.56345 10586 ft 330 kts 303°
2026-04-29 14:59 -3.63034 -38.58375 10874 ft 347 kts 301°
2026-04-29 14:59 -3.61840 -38.60539 11134 ft 362 kts 300°
2026-04-29 14:59 -3.60643 -38.62783 11426 ft 375 kts 299°
2026-04-29 14:59 -3.59399 -38.65140 11907 ft 381 kts 299°
2026-04-29 15:00 -3.58167 -38.67471 12473 ft 385 kts 298°
2026-04-29 15:00 -3.56903 -38.69849 13154 ft 387 kts 298°
2026-04-29 15:00 -3.55628 -38.72234 13769 ft 391 kts 299°
2026-04-29 15:00 -3.54332 -38.74645 14197 ft 395 kts 299°
2026-04-29 15:01 -3.53014 -38.77091 14614 ft 401 kts 300°
2026-04-29 15:01 -3.51684 -38.79555 15108 ft 404 kts 300°
2026-04-29 15:01 -3.50349 -38.82027 15710 ft 404 kts 300°
2026-04-29 15:01 -3.49011 -38.84506 16226 ft 406 kts 300°
2026-04-29 15:02 -3.47662 -38.87006 16717 ft 410 kts 300°
2026-04-29 15:02 -3.46296 -38.89538 17156 ft 415 kts 300°
2026-04-29 15:02 -3.44920 -38.92090 17671 ft 418 kts 300°
2026-04-29 15:02 -3.43533 -38.94659 18212 ft 420 kts 300°
2026-04-29 15:03 -3.42137 -38.97247 18628 ft 424 kts 300°
2026-04-29 15:03 -3.40728 -38.99858 19021 ft 429 kts 300°
2026-04-29 15:03 -3.39305 -39.02494 19415 ft 433 kts 300°
2026-04-29 15:03 -3.37869 -39.05156 19819 ft 436 kts 300°
2026-04-29 15:04 -3.36419 -39.07843 20203 ft 440 kts 300°
2026-04-29 15:04 -3.34960 -39.10547 20619 ft 443 kts 300°
2026-04-29 15:04 -3.33490 -39.13271 21014 ft 447 kts 300°
2026-04-29 15:04 -3.32006 -39.16020 21423 ft 450 kts 300°
2026-04-29 15:05 -3.30513 -39.18787 21808 ft 453 kts 300°
2026-04-29 15:05 -3.29521 -39.20625 22062 ft 455 kts 300°
2026-04-29 15:05 -3.27494 -39.24378 22561 ft 460 kts 300°
2026-04-29 15:05 -3.25971 -39.27201 22928 ft 463 kts 300°
2026-04-29 15:06 -3.24453 -39.30011 23288 ft 466 kts 300°
2026-04-29 15:06 -3.22889 -39.32907 23628 ft 470 kts 300°
2026-04-29 15:06 -3.21332 -39.35790 23959 ft 472 kts 300°
2026-04-29 15:06 -3.19791 -39.38644 24351 ft 472 kts 300°
2026-04-29 15:07 -3.18227 -39.41541 24694 ft 474 kts 300°
2026-04-29 15:07 -3.16657 -39.44448 25021 ft 476 kts 300°
2026-04-29 15:07 -3.15080 -39.47366 25367 ft 478 kts 300°
2026-04-29 15:07 -3.13496 -39.50299 25697 ft 480 kts 300°
2026-04-29 15:08 -3.11903 -39.53246 26025 ft 482 kts 300°
2026-04-29 15:08 -3.10306 -39.56201 26354 ft 484 kts 300°
2026-04-29 15:08 -3.08706 -39.59162 26701 ft 485 kts 299°
2026-04-29 15:08 -3.07643 -39.61130 26961 ft 485 kts 299°
2026-04-29 15:09 -3.06031 -39.64112 27297 ft 487 kts 299°
2026-04-29 15:09 -3.04414 -39.67104 27617 ft 489 kts 299°
2026-04-29 15:09 -3.02793 -39.70103 27896 ft 491 kts 299°
2026-04-29 15:09 -3.02681 -39.70310 27921 ft 491 kts 299°
2026-04-29 15:10 -3.01048 -39.73331 28190 ft 493 kts 299°
2026-04-29 15:10 -2.99415 -39.76351 28494 ft 496 kts 299°
2026-04-29 15:10 -2.97769 -39.79395 28786 ft 498 kts 299°
2026-04-29 15:10 -2.96121 -39.82442 29093 ft 499 kts 299°
2026-04-29 15:11 -2.94495 -39.85449 29402 ft 500 kts 299°
2026-04-29 15:11 -2.93241 -39.87767 29603 ft 501 kts 299°
2026-04-29 15:11 -2.91772 -39.90483 29817 ft 503 kts 299°